Other Public Products
Issued by NWS Grand Forks, ND

Home | Current Version | Previous Version | Text Only | Print | Product List | Glossary On
Versions: 1 2 3 4 5 6 7 8 9 10 11 12 13 14 15 16 17 18 19 20 21 22 23 24 25 26 27 28 29 30 31 32 33 34 35 36 37 38 39 40 41 42 43 44 45 46 47 48 49 50
000
FPUS83 KFGF 301731
OPUFGF
PRAIRIE TO PINES WEATHER ROUNDUP
NATIONAL WEATHER SERVICE EASTERN NORTH DAKOTA/GRAND FORKS ND
1200 PM CDT THU MAR 30 2017

 **SATELLITE DATA USED TO AUGMENT SKY COVER AT AUTOMATED STATIONS**
 *****  WEATHER ACROSS EASTERN NORTH DAKOTA  *****

CITY           SKY/WX    TMP DP  RH WIND       PRES   REMARKS
GRAND FORKS    PTSUNNY   51  43  74 S18       29.91S
GRAND FORKS AF FAIR      51  40  67 S14       29.90F
GRAND CITY NWS NOT AVBL
BUXTON         NOT AVBL
DEVILS LAKE    CLOUDY    47  37  68 S16G24    29.85F
FARGO          FAIR      50  39  66 S7        29.92F
WAHPETON ARPT  CLOUDY    48  34  57 SE9       29.91S
$$

 *****  WEATHER ACROSS CENTRAL AND WESTERN NORTH DAKOTA  *****

CITY           SKY/WX    TMP DP  RH WIND       PRES   REMARKS
JAMESTOWN      PTSUNNY   45  37  73 S12       29.87F
BISMARCK       CLOUDY    47  35  63 S16       29.84S
MINOT          CLOUDY    50  38  63 S12       29.76S
MINOT AFB      PTSUNNY   48  39  69 S9        29.75S
GARRISON         N/A     47  36  65 S16       29.77S
WILLISTON      FAIR      55  40  56 SE6       29.70F
DICKINSON      CLOUDY    49  37  63 SE17      29.70F
HETTINGER      CLOUDY    46  36  68 SE14      29.77S
$$

 *****  OTHER OBSERVATIONS NORTHEAST NORTH DAKOTA  *****

CITY           SKY/WX    TMP DP  RH WIND       PRES   REMARKS
WALHALLA       NOT AVBL
LANGDON        PTSUNNY   48  43  81 SW17      29.85F
CAVALIER       CLOUDY    46  39  76 S8        29.88S
GRAFTON        CLOUDY    50  41  71 S16       29.90F
CANDO          NOT AVBL
FORT TOTTEN      N/A     46  40  78 S13       29.95S
ROLLA          CLOUDY    39  39 100 S21       29.81S
RUGBY          NOT AVBL
 ***** THE ABOVE OBSERVATIONS ARE NON NWS ARE NOT QUALITY
        CONTROLLED AND MAY MIS-REPORT RAIN FOR SNOW...
$$

 *****  OTHER OBSERVATIONS SOUTHEAST NORTH DAKOTA *****

CITY           SKY/WX    TMP DP  RH WIND       PRES   REMARKS
COOPERSTOWN    FAIR      48  39  71 S17       29.88F
VALLEY CITY    PTSUNNY   46  41  81 SE17      29.90F
OAKES          NOT AVBL
GWINNER        CLOUDY    41  37  87 MISG      29.91F
SHEYENNE NWR     N/A     46  36  67 S7        29.95S
BUFFALO        NOT AVBL
WYNDMERE         N/A     48  39  71 E6          N/A
 ***** THE ABOVE OBSERVATIONS ARE NON NWS ARE NOT QUALITY
       CONTROLLED AND MAY MIS-REPORT RAIN FOR SNOW...
$$

  *****  WEATHER ACROSS NORTHERN MINNESOTA  *****

CITY           SKY/WX    TMP DP  RH WIND       PRES   REMARKS
FLAG ISLAND    FAIR      36  32  87 SE8       29.94F
WARROAD        FAIR      48  39  71 S3        29.93F
ROSEAU         FAIR      48  39  71 SW6       29.93F
HALLOCK        CLOUDY    46  43  87 S12       29.90F
THF RVR FALLS    N/A    N/A N/A N/A MISG        N/A
HALSTAD          N/A     45  39  79 SE8         N/A
FOSSTON        FAIR      48  46  93 E7        29.93F
BAUDETTE         N/A    N/A N/A N/A MISG      29.94F
WASKISH        PTSUNNY   46  37  71 NW10      29.94F
CROOKSTON      CLOUDY    43  39  87 S12       29.94F FOG
$$
  *****  WEATHER ACROSS CENTRAL AND WEST MINNESOTA  *****

CITY           SKY/WX    TMP DP  RH WIND       PRES   REMARKS
BEMIDJI        FAIR      47  34  61 E8        29.93F
PARK RAPIDS    FAIR      49  31  49 E13       29.90F
WADENA         FAIR      48  30  49 SE13      29.89F
DETROIT LAKES  FAIR      46  36  66 S6        29.91F
MOORHEAD       FAIR      46  39  76 SE5       29.93S
FERGUS FALLS   FAIR      48  34  57 SE13      29.92F
ELBOW LAKE     PTSUNNY   49  34  56 SE12G17   29.89F
MORRIS MN      CLOUDY    46  37  71 E14G21    29.87F
STAPLES        FAIR      46  28  49 E9G16     29.89F
WHEATON        CLOUDY    46  36  66 E10G17    29.91S
$$
  *****  WEATHER ELSEWHERE ACROSS MINNESOTA  *****

CITY           SKY/WX    TMP DP  RH WIND       PRES   REMARKS
DULUTH         FAIR      44  31  60 E15       29.95F
INTRNTL FALLS  FAIR      48  33  56 CALM      29.96F
ELY            FAIR      46  27  46 E3        29.95F
CLOQUET        FAIR      43  28  56 E9        29.94F
BRAINERD       FAIR      45  29  53 E12       29.92F
HIBBING        FAIR      45  30  55 SE8       29.95F
ALEXANDRIA     FAIR      46  33  60 E15       29.89F
SAINT CLOUD    CLOUDY    44  33  65 NE14G20   29.89F
MINNEAPOLIS    CLOUDY    43  34  70 E15       29.86F
$$

  *****  WEATHER ACROSS SOUTH DAKOTA  *****

CITY           SKY/WX    TMP DP  RH WIND       PRES   REMARKS
SIOUX FALLS    CLOUDY    42  38  85 NE14      29.82F
BROOKINGS      CLOUDY    39  35  86 E10       29.84F
WATERTOWN      CLOUDY    38  36  92 E9        29.86F
HURON          CLOUDY    42  36  79 E8        29.87F
SISSETON         N/A     44  38  79 SE8       29.89S
ABERDEEN       CLOUDY    41  34  76 E5        29.89F
MITCHELL       CLOUDY    45  36  70 N8        29.86F
PIERRE         CLOUDY    41  34  76 E9        29.85F
MOBRIDGE       CLOUDY    44  34  67 SE15      29.83S
RAPID CITY     PTSUNNY   46  41  82 SE13      29.76S
$$

  *****  SOME WEATHER IN NEARBY STATES *****

CITY           SKY/WX    TMP DP  RH WIND       PRES   REMARKS
GLASGOW MT     FAIR      55  35  47 NW7       29.68F
GREAT FALLS MT FAIR      53  30  41 NW7       29.73R
CHEYENNE WY    PTSUNNY   54  29  38 W9        29.77F
SCOTTSBLUFF NE FAIR      45  39  79 SE5       29.76F
OMAHA NE       CLOUDY    43  37  79 N17G23    29.70F
DES MOINES IA  DRIZZLE   43  41  93 NE13      29.68R FOG
DAVENPORT IA   LGT RAIN  43  42  97 NE14      29.66F FOG
CHICAGO IL     LGT RAIN  43  41  93 E12G23    29.67F FOG
EAU CLAIRE WI  CLOUDY    40  34  79 NE17      29.87F
LA CROSSE WI   CLOUDY    41  36  82 E12       29.79F
$$

  *****  SOME NATIONAL WEATHER *****

CITY           SKY/WX    TMP DP  RH WIND       PRES   REMARKS
LA GUARDIA NY  PTSUNNY   48  22  35 SE6       30.21F
RALEIGH NC     CLOUDY    59  39  47 E9        30.16F
ATLANTA GA     PTSUNNY   76  54  46 SW12G18   29.97F
NEW ORLEANS LA LGT RAIN  63  61  93 E13       29.90F
OKLAHOMA CITY  CLOUDY    54  40  59 NW25G33   29.78R
ALBUQUERQUE NM FAIR      52  27  38 S9        29.99F
SALT LAKE CITY PTSUNNY   48  42  80 NE16      29.71F
LOS ANGELES CA FAIR      66  56  70 CALM      29.96R
BOISE ID       LGT RAIN  36  35  96 NW22G32   29.74R FOG
SEATTLE WA     PTSUNNY   46  40  79 VRB6      30.19R
$$

*** WEATHER ACROSS MANITOBA...SASKATCHEWAN AND ONTARIO ***
                ***ONTARIO***

CITY           SKY/WX    TMP DP  RH WIND       PRES   REMARKS
GERALDTON      MOSUNNY   41  21  45 SE15      30.10F
THUNDER BAY    PTSUNNY   41  30  65 E14       30.08F
SIOUX LOOKOUT  PTSUNNY   45  28  53 S8        29.97F
TORONTO        CLOUDY    37  21  52 E13G24    30.18F
BIG TROUT LK   LGT RAIN  36  30  80 S15       29.89F
PICKLE LAKE    PTSUNNY   43  25  49 S8        29.96F
DRYDEN         PTSUNNY   45  32  61 S6        29.96F
KENORA         PTSUNNY   41  34  75 S8        29.94S
$$
                *** MANITOBA***

CITY           SKY/WX    TMP DP  RH WIND       PRES   REMARKS
BRANDON        PTSUNNY   45  37  76 E3        29.78S
DAUPHIN        FOG       32  32 100 NE3       29.82S VSB 1/8
ISLAND LAKE    CLOUDY    37  36  93 W2        29.82R FOG
PILOT MOUND      N/A     43  39  87 S17         N/A
THE PAS        FOG       34  32  93 N5        29.86R VSB 1/2
THOMPSON       FLURRIES  34  30  86 NE10      29.89R
WINNIPEG       PTSUNNY   46  39  76 S17G26    29.85F
LYNN LAKE      PTSUNNY   37  25  60 E8        29.91S
CHURCHILL      PTSUNNY   18  14  86 NE7       30.05S WCI   8
GILLAM         CLOUDY    32  25  74 NE10      29.91R WCI  24
$$
                ***SASKATCHEWAN***

CITY           SKY/WX    TMP DP  RH WIND       PRES   REMARKS
ESTEVAN        PTSUNNY   52  34  50 E13       29.73R
KINDERSLEY     MOSUNNY   43  36  75 NE21      29.71R
LLOYDMINSTER   CLOUDY    34  34 100 NE9       29.82R
PRINCE ALBERT  CLOUDY    37  32  81 E8        29.86S
REGINA         PTSUNNY   54  32  43 E7        29.72S
YORKTON        FOG       34  34 100 NW5       29.79R V


USA.gov is the U.S. government's official web portal to all federal, state and local government web resources and services.